Temperature
10 10 10 10 10 10 10 10 10 10 11 11 11 11 11 11 10 11 11 10 10 10 10 10 10 11 10 10 10 11 11 10 10 10 10 10 10 10 10 10 10 10 10
10 10 10 10 10 10 10 10 10 10 10 10 10 10 10 10 10 10 10 10 10 10 10 10 10 10 10 10 10 10 10 10 10 10 10 10 10 9 9 9 9 9 9
9 9 9 9 9 9 9 9 9 10 10 10 10 10 10 10 10 10 10 10 10 10 10 10 9 9 9 9 9 9 9 9 9 9 9 9 9 9 9 9 9 9 9
9 9 9 9 9 9 9 9 9 9 9 9 9 9 9 9 9 9 9 9 9 9 9 9 9 9 9 8 8 8 8 9 9 9 9 8 8 8 8 8 8 8 8
8 8 8 8 8 8 8 8 8 9 9 9 9 9 9 9 9 9 9 9 9 9 9 9 9 9 8 8 8 8 8 8 8 8 8 8 8 8 8 8 8 7 7
7 8 8 8 8 8 8 8 8 8 8 8 8 8 8 8 8 8 8 8 8 8 8 8 8 8 8 8 8 7 7 7 7 7 7 7 7 7 7 7 7 7 7
7 7 7 7 7 7 8 7 7 7 7 8 8 7 7 7 7 8 8 8 8 8 8 8 8 8 8 7 7 7 7 7 7 7 7 7 7 7 7 7 6 6 6
6 6 7 7 7 7 7 7 7 7 7 7 7 7 6 6 6 7 7 7 7 7 7 7 7 7 7 7 7 7 7 7 6 6 6 7 6 6 6 6 6 6 6
6 6 6 6 6 6 6 6 6 6 6 6 6 6 6 6 6 6 6 7 7 7 7 7 7 7 7 7 7 7 7 6 6 6 6 6 6 6 6 6 6 6 6
5 5 5 5 6 6 6 6 6 6 6 6 6 6 6 6 5 5 5 6 6 6 6 6 6 6 6 6 6 6 6 6 6 6 6 6 6 6 5 5 5 5 5
4 5 5 5 5 5 5 5 5 5 5 5 5 5 6 5 5 5 4 5 5 5 6 6 6 6 6 6 6 6 6 5 5 5 5 5 5 5 5 5 5 5 5
4 4 4 4 4 4 5 5 5 5 5 5 5 5 5 5 5 5 4 4 4 5 5 5 5 5 5 5 5 5 5 5 5 5 4 4 4 4 4 4 4 4 4
3 3 4 4 4 4 4 4 4 4 4 4 4 4 4 4 4 4 4 3 3 4 4 4 4 4 4 4 4 5 5 5 5 4 4 4 4 4 4 4 4 4 3
3 3 3 3 3 3 3 3 3 4 4 4 4 4 4 4 4 4 4 3 3 3 3 3 4 4 4 4 4 4 4 4 4 4 4 4 3 3 3 3 3 3 3
2 2 2 3 3 3 3 3 3 3 3 3 3 3 3 3 3 3 3 3 3 2 2 3 3 3 3 3 3 3 4 4 4 3 3 3 3 3 3 3 3 3 3
2 2 2 2 2 2 2 2 2 2 2 2 2 2 2 2 2 2 2 2 2 2 2 2 2 2 2 2 3 3 3 3 3 3 3 3 3 3 2 2 2 2 2
1 1 1 2 2 2 2 2 2 2 2 2 2 2 2 2 2 2 2 1 1 1 1 1 2 2 2 2 2 2 2 2 2 2 2 2 2 2 2 2 2 2 2
1 1 1 1 1 1 1 1 1 1 1 1 1 1 1 1 1 1 1 1 1 1 1 1 1 1 1 1 1 1 1 1 1 1 1 1 1 1 1 1 1 1 1
0 0 0 1 1 1 1 1 1 1 1 1 1 1 1 1 1 1 0 0 0 0 0 0 0 1 1 0 0 1 1 1 1 1 1 1 1 1 1 0 0 0 0
-0 -0 -0 -0 0 0 0 0 0 0 0 0 0 0 0 0 0 0 0 0 -0 -0 -0 -0 -0 -0 -0 -0 -0 -0 -0 0 0 -0 -0 -0 -0 -0 -0 -0 -0 -0 -0
-1 -1 -1 -1 -1 -1 -0 -0 -1 -1 -0 -0 -0 -0 -0 -0 -0 -0 -0 -0 -1 -1 -1 -1 -1 -1 -1 -1 -1 -1 -1 -1 -1 -1 -1 -1 -1 -1 -1 -1 -1 -1 -1
-2 -2 -2 -2 -1 -1 -1 -1 -1 -1 -1 -1 -1 -1 -1 -1 -1 -1 -1 -1 -1 -1 -1 -1 -1 -1 -1 -1 -1 -1 -2 -2 -2 -2 -2 -1 -2 -2 -2 -2 -2 -2 -2
-2 -2 -2 -2 -2 -2 -2 -2 -2 -2 -2 -2 -2 -2 -2 -1 -1 -1 -1 -1 -1 -1 -1 -1 -2 -1 -2 -2 -2 -2 -2 -2 -2 -2 -3 -2 -2 -2 -2 -2 -3 -3 -3
-3 -3 -3 -3 -3 -3 -3 -3 -3 -3 -3 -3 -3 -2 -2 -2 -2 -2 -2 -2 -2 -2 -2 -2 -2 -2 -2 -2 -2 -2 -2 -3 -3 -3 -3 -3 -3 -3 -3 -3 -3 -3 -3
-4 -4 -4 -4 -4 -3 -3 -3 -4 -4 -4 -4 -3 -3 -3 -3 -3 -3 -3 -3 -3 -2 -2 -3 -3 -3 -3 -3 -3 -3 -3 -4 -4 -4 -4 -4 -4 -4 -4 -4 -4 -4 -4
-5 -5 -5 -5 -4 -4 -4 -4 -4 -5 -5 -4 -4 -4 -4 -4 -4 -4 -4 -4 -3 -3 -3 -3 -3 -3 -3 -3 -4 -4 -4 -4 -4 -5 -4 -4 -4 -5 -5 -5 -5 -5 -5
Wind_Speed
4 4 4 5 5 5 5 5 5 6 6 7 7 8 7 7 7 7 7 9 10 10 9 9 9 9 10 11 11 11 10 10 10 11 11 12 12 12 11 11 11 11 10
5 4 4 4 4 5 5 5 5 5 5 5 6 7 7 7 7 7 6 7 8 8 8 9 9 9 9 10 10 10 10 10 10 10 11 11 11 10 10 10 9 9 9
5 5 4 3 3 5 6 6 5 5 5 5 5 6 6 6 6 6 6 6 6 7 7 8 8 8 8 8 8 9 9 10 10 10 10 9 9 9 8 8 8 8 7
6 5 4 3 4 5 5 4 3 3 3 3 3 3 4 5 5 5 6 6 6 5 6 7 7 7 6 7 7 8 9 9 9 8 8 7 7 6 6 6 6 6 6
5 5 4 4 5 5 4 4 3 3 3 3 3 3 3 3 4 5 5 5 5 5 5 5 5 5 5 5 6 7 8 8 7 7 6 6 5 5 5 4 5 4 4
5 5 4 4 5 4 3 4 3 3 3 4 4 4 3 3 4 4 3 4 4 5 5 5 4 4 4 5 7 7 6 6 5 5 5 4 4 4 3 3 3 3 2
5 4 3 3 3 3 4 4 4 4 3 3 4 3 3 3 2 2 3 3 3 3 5 5 4 4 4 5 5 5 5 5 4 3 3 3 3 3 3 2 2 1 1
5 5 4 3 3 4 4 4 4 3 2 2 3 3 1 2 2 2 1 1 1 3 3 4 4 5 5 5 4 4 4 4 3 3 2 2 2 1 1 2 2 2 2
5 5 4 4 3 4 5 4 5 5 3 1 1 2 3 3 1 2 2 1 1 1 2 3 4 4 4 4 3 3 3 3 2 2 1 1 1 1 2 2 2 2 3
4 5 4 4 4 3 4 5 4 4 4 3 0 1 1 3 2 0 2 2 1 1 2 2 3 4 4 4 3 2 2 2 2 1 1 1 0 1 2 3 3 2 3
3 4 5 4 3 3 3 4 4 4 4 4 2 1 1 1 1 2 2 1 1 1 1 2 3 3 4 3 3 3 3 2 2 1 1 1 1 2 3 3 4 4 3
1 2 4 4 4 3 3 4 5 5 4 3 2 2 3 3 2 2 2 2 1 1 1 1 2 4 4 4 3 3 3 3 3 2 2 2 2 2 3 3 3 3 4
2 4 3 4 4 4 4 4 4 4 4 4 4 3 3 3 3 2 2 2 1 1 1 1 3 4 4 4 4 4 4 4 4 4 4 4 4 4 4 4 4 4 4
3 3 3 4 5 4 4 4 3 4 3 4 4 3 2 2 3 3 3 3 2 1 1 2 1 4 5 5 5 5 4 5 5 5 5 5 4 4 4 4 4 4 5
3 4 3 3 4 4 5 4 3 4 4 4 4 4 3 2 2 2 2 3 4 3 4 3 2 3 4 5 5 5 5 6 6 6 6 6 6 5 5 4 4 5 5
4 4 4 4 4 4 4 4 3 4 5 4 3 4 3 2 2 2 3 2 2 4 4 3 3 2 4 4 6 6 6 6 7 7 7 7 7 6 6 6 6 6 6
4 5 5 4 4 4 4 4 4 4 5 5 4 5 4 3 3 3 3 3 2 2 3 3 2 2 3 3 4 5 5 5 6 7 8 8 8 8 7 7 7 6 7
5 5 5 5 5 5 5 5 6 5 6 6 6 5 5 4 4 4 4 4 3 3 3 4 2 2 3 4 4 4 4 5 6 7 8 9 8 8 8 8 7 7 7
5 5 5 5 5 5 5 6 6 6 6 7 6 7 6 5 5 4 5 5 4 3 3 4 3 2 2 2 2 2 3 3 5 6 8 8 8 8 9 8 8 8 7
6 6 6 6 6 6 6 6 6 6 6 6 6 6 6 7 7 6 6 5 4 4 3 3 3 2 2 2 2 2 3 2 3 4 7 7 8 9 9 9 9 8 8
5 6 6 5 5 6 6 6 7 7 6 6 6 6 7 8 8 7 6 6 6 5 4 4 4 3 3 3 4 3 4 2 3 3 3 4 5 5 7 8 8 8 8
5 5 6 6 6 6 8 10 8 6 6 7 7 6 7 8 9 10 10 10 9 8 7 6 5 6 6 5 3 3 3 2 4 3 3 4 4 4 6 7 8 9 9
5 5 6 6 7 8 9 10 10 6 6 7 7 7 6 7 8 6 8 9 10 11 10 8 7 8 7 6 6 5 5 4 5 3 2 4 3 5 6 8 9 9 9
4 5 6 6 6 7 9 10 10 7 6 7 7 8 8 7 8 7 6 6 7 7 9 8 7 7 6 6 7 6 5 3 3 2 3 4 3 4 5 6 9 9 9
4 4 5 5 6 6 9 9 9 5 5 6 7 8 8 8 10 10 7 7 7 6 8 9 10 9 10 10 8 4 3 3 4 3 2 3 3 3 3 4 7 8 8
4 4 4 4 5 6 8 9 9 5 6 6 5 6 9 10 10 11 8 8 8 7 5 5 5 6 6 8 10 7 6 5 3 3 3 3 2 1 3 3 3 4 5
Wind_Direction
97 96 90 87 85 85 88 89 94 94 89 87 92 97 94 94 94 93 95 103 111 114 115 117 116 111 112 112 111 109 106 105 101 100 99 95 93 93 93 93 92 91 90
108 112 103 96 93 94 94 99 100 100 93 93 92 92 94 94 90 89 90 94 99 108 114 115 116 116 113 114 114 113 112 111 107 101 97 94 91 89 89 92 93 91 90
116 115 113 106 103 106 100 95 91 93 91 87 90 88 88 91 91 85 85 89 90 93 108 112 113 117 117 117 119 118 116 110 106 105 102 98 95 90 89 89 91 92 90
124 118 115 116 116 111 104 101 99 100 91 85 84 84 86 88 90 92 89 86 87 90 98 103 108 113 117 120 122 123 120 115 111 111 109 105 101 99 95 92 93 91 88
131 128 120 121 120 111 106 109 108 114 113 103 97 82 80 82 82 86 86 88 89 87 92 95 98 103 111 120 119 120 123 123 120 118 114 108 112 117 112 107 102 96 94
135 132 127 120 123 116 113 115 119 103 121 122 103 77 59 63 72 75 86 95 96 95 93 92 92 99 106 109 114 114 119 125 128 128 124 124 126 134 134 130 121 114 108
143 136 133 129 129 135 139 132 121 118 109 114 104 79 33 31 46 45 69 86 89 102 107 101 94 99 103 111 115 115 114 116 125 134 136 144 148 151 165 169 174 173 171
149 152 148 156 147 143 138 135 123 131 139 129 125 125 84 6 351 0 22 95 105 104 112 117 109 107 112 114 117 122 128 125 120 116 139 171 177 186 200 205 220 220 214
159 163 168 167 161 159 163 161 153 146 161 186 113 138 151 197 265 328 337 3 150 124 118 133 127 123 124 124 126 127 132 137 146 140 120 127 203 227 246 250 247 241 242
155 159 165 170 171 167 170 172 164 159 154 166 214 10 126 145 156 218 322 355 24 142 147 148 145 145 138 135 149 154 141 154 171 168 174 218 275 272 261 269 271 262 254
162 167 165 166 170 175 178 174 172 170 168 171 172 154 111 74 124 158 209 282 346 308 209 175 164 163 159 157 169 175 170 182 199 219 241 276 280 279 292 281 272 266 258
178 182 175 175 178 182 186 188 182 182 185 181 182 167 156 158 171 154 181 206 236 277 281 209 192 183 181 182 196 202 202 203 214 228 245 258 267 279 292 299 302 303 277
215 205 196 190 191 193 193 187 183 189 191 186 189 195 190 181 158 155 162 176 221 265 255 245 220 197 196 195 204 214 224 231 231 236 247 258 266 271 277 284 293 292 296
209 217 207 202 200 196 195 188 185 191 187 189 196 195 203 207 173 164 164 163 177 252 251 245 236 210 204 202 213 217 226 242 242 239 248 255 257 263 269 274 282 283 286
208 214 219 208 206 197 196 192 197 198 188 193 195 196 204 208 190 184 175 178 177 200 232 227 222 219 215 211 218 218 223 238 247 245 244 253 256 256 259 266 273 274 278
205 204 211 208 201 196 195 193 205 203 191 197 193 188 199 211 204 196 195 201 211 195 220 217 220 222 214 219 227 223 229 240 247 253 249 250 256 256 255 257 261 265 269
205 203 208 208 202 200 192 194 203 205 199 201 199 198 208 206 200 197 191 194 208 200 227 249 239 217 200 212 228 232 233 232 241 253 256 253 252 254 251 255 259 263 264
211 210 207 208 210 208 200 201 203 209 204 205 208 206 213 208 204 201 199 204 209 210 212 236 248 227 225 213 213 227 239 237 240 253 259 256 251 253 255 259 260 259 259
210 211 207 209 214 213 209 210 207 213 212 210 208 208 210 204 214 211 206 207 210 217 212 218 234 234 246 218 215 243 242 244 250 254 257 256 252 253 257 258 259 258 256
211 215 217 217 218 220 217 215 214 217 217 216 215 214 210 208 212 210 212 210 207 208 206 212 224 225 236 232 208 227 255 251 259 261 254 256 259 258 257 257 255 252 252
220 217 219 224 223 221 219 217 216 218 215 216 217 218 221 223 226 221 219 208 203 208 207 215 225 226 225 219 223 222 237 253 266 245 249 259 261 257 255 255 253 250 252
223 221 221 221 223 230 233 232 228 220 217 216 220 223 229 230 234 234 235 226 215 211 212 216 224 229 228 224 217 222 232 249 264 228 233 265 247 251 249 245 250 253 253
228 225 227 223 223 229 234 233 232 230 223 220 221 223 231 233 234 226 232 233 230 230 224 219 223 227 227 217 209 217 224 236 249 230 229 259 246 253 248 244 253 254 252
236 233 229 226 227 235 235 236 233 229 226 225 224 223 225 228 227 222 223 228 232 234 233 228 224 226 224 213 207 213 217 240 274 241 211 250 250 253 254 247 253 252 247
240 241 239 224 226 239 239 238 236 223 229 229 227 226 224 224 232 229 224 225 233 241 242 236 235 235 232 225 208 186 197 216 255 251 217 231 249 267 268 255 242 246 248
239 241 251 239 229 236 241 237 234 224 228 233 231 230 234 233 233 228 219 217 226 231 222 231 234 237 232 224 220 209 204 215 239 245 213 212 232 240 273 265 240 243 252
Height
1535 1536 1537 1538 1539 1541 1542 1543 1544 1546 1547 1548 1549 1551 1552 1553 1554 1555 1556 1557 1558 1559 1560 1561 1561 1561 1562 1562 1562 1563 1563 1563 1564 1564 1564 1565 1565 1565 1566 1566 1566 1566 1567
1533 1534 1535 1536 1538 1539 1540 1542 1543 1545 1546 1547 1548 1550 1551 1552 1553 1554 1555 1556 1557 1558 1559 1560 1561 1561 1562 1562 1562 1563 1563 1563 1564 1564 1564 1564 1565 1565 1565 1566 1566 1566 1566
1531 1532 1533 1535 1536 1537 1539 1540 1542 1543 1544 1546 1547 1549 1550 1551 1552 1553 1555 1555 1556 1557 1558 1559 1560 1561 1561 1562 1562 1562 1563 1563 1563 1563 1564 1564 1564 1564 1565 1565 1565 1565 1566
1529 1530 1531 1533 1534 1535 1537 1538 1540 1541 1543 1544 1546 1547 1548 1550 1551 1552 1553 1554 1555 1556 1557 1558 1559 1560 1560 1561 1561 1562 1562 1562 1562 1563 1563 1563 1563 1563 1564 1564 1564 1564 1564
1527 1528 1529 1531 1532 1533 1534 1536 1538 1539 1541 1542 1544 1545 1547 1548 1549 1550 1551 1552 1553 1554 1555 1556 1557 1558 1559 1560 1560 1561 1561 1561 1561 1561 1562 1562 1562 1562 1562 1562 1563 1563 1563
1524 1526 1527 1528 1530 1531 1532 1534 1535 1537 1539 1540 1541 1543 1544 1546 1547 1548 1549 1550 1551 1552 1553 1554 1556 1557 1557 1558 1558 1559 1559 1560 1560 1560 1560 1560 1561 1561 1561 1561 1561 1561 1561
1522 1523 1524 1526 1527 1528 1529 1531 1533 1535 1536 1538 1539 1540 1542 1544 1544 1545 1546 1547 1549 1550 1551 1552 1553 1555 1555 1556 1557 1557 1558 1558 1558 1558 1559 1559 1559 1559 1559 1559 1559 1559 1559
1518 1520 1522 1523 1524 1526 1527 1528 1530 1531 1533 1535 1536 1537 1539 1542 1542 1543 1544 1545 1546 1547 1548 1550 1551 1552 1553 1554 1554 1555 1555 1556 1556 1556 1556 1557 1557 1557 1557 1557 1557 1557 1557
1515 1517 1519 1520 1521 1523 1524 1525 1527 1529 1530 1532 1534 1535 1536 1537 1538 1540 1540 1541 1542 1543 1545 1546 1548 1549 1550 1551 1552 1552 1553 1553 1554 1553 1554 1554 1554 1555 1555 1555 1555 1555 1555
1512 1513 1515 1517 1518 1520 1521 1523 1524 1526 1527 1529 1531 1532 1534 1534 1536 1536 1537 1538 1539 1540 1542 1543 1544 1546 1547 1548 1549 1549 1550 1550 1551 1551 1551 1551 1552 1552 1552 1552 1552 1552 1552
1508 1510 1512 1513 1515 1516 1518 1519 1521 1523 1524 1526 1527 1529 1530 1531 1532 1533 1533 1535 1536 1537 1539 1540 1541 1542 1543 1545 1545 1546 1546 1547 1548 1548 1548 1548 1548 1549 1548 1548 1549 1548 1548
1505 1507 1508 1509 1511 1513 1514 1516 1518 1519 1521 1522 1524 1525 1526 1527 1528 1529 1530 1531 1532 1534 1535 1536 1537 1539 1540 1541 1542 1542 1543 1543 1544 1544 1544 1545 1545 1545 1545 1545 1545 1545 1545
1500 1502 1504 1505 1507 1509 1511 1513 1514 1516 1517 1518 1520 1522 1523 1524 1526 1526 1527 1528 1529 1530 1532 1533 1534 1535 1536 1537 1538 1538 1539 1539 1539 1540 1541 1541 1541 1541 1541 1541 1541 1541 1541
1496 1498 1500 1502 1504 1505 1507 1509 1510 1512 1513 1515 1516 1518 1519 1520 1522 1523 1523 1524 1525 1527 1527 1528 1530 1531 1532 1533 1534 1534 1535 1535 1535 1536 1536 1537 1537 1537 1537 1537 1537 1537 1536
1492 1495 1496 1498 1499 1501 1503 1504 1506 1507 1509 1511 1512 1514 1515 1516 1517 1519 1520 1521 1522 1522 1522 1524 1525 1527 1528 1528 1529 1530 1530 1531 1531 1531 1531 1532 1532 1532 1532 1532 1532 1532 1532
1488 1490 1492 1493 1495 1496 1498 1500 1501 1503 1505 1506 1508 1509 1511 1512 1513 1514 1516 1517 1518 1518 1518 1519 1520 1522 1523 1524 1525 1525 1526 1526 1526 1526 1526 1527 1527 1527 1527 1526 1526 1527 1526
1484 1485 1487 1489 1491 1492 1494 1495 1497 1498 1500 1501 1503 1504 1506 1508 1509 1510 1511 1513 1514 1514 1513 1514 1516 1517 1518 1519 1520 1520 1521 1521 1521 1521 1521 1521 1521 1521 1521 1521 1521 1521 1521
1479 1481 1483 1484 1486 1487 1488 1490 1491 1493 1495 1496 1498 1500 1501 1502 1504 1505 1506 1507 1509 1510 1509 1509 1510 1512 1513 1514 1514 1515 1515 1516 1516 1516 1516 1516 1516 1516 1516 1516 1516 1516 1515
1474 1476 1478 1479 1480 1482 1483 1485 1486 1487 1489 1491 1493 1494 1496 1497 1498 1500 1501 1502 1503 1504 1505 1505 1505 1506 1507 1508 1509 1509 1510 1510 1510 1510 1510 1510 1510 1510 1510 1510 1510 1510 1510
1469 1470 1472 1474 1475 1476 1477 1479 1481 1482 1484 1486 1487 1489 1490 1491 1493 1494 1495 1497 1498 1499 1500 1500 1500 1501 1501 1502 1503 1503 1503 1504 1504 1504 1504 1504 1504 1504 1504 1504 1504 1504 1504
1463 1464 1466 1468 1469 1470 1471 1473 1475 1476 1478 1480 1481 1483 1484 1486 1487 1489 1490 1491 1492 1493 1494 1494 1495 1495 1496 1496 1497 1497 1498 1497 1497 1498 1497 1497 1498 1497 1497 1498 1498 1498 1498
1457 1459 1460 1461 1463 1464 1466 1468 1469 1470 1472 1473 1475 1476 1478 1480 1481 1483 1484 1485 1487 1487 1488 1489 1489 1489 1490 1491 1492 1492 1492 1491 1491 1492 1492 1491 1492 1491 1491 1492 1492 1492 1491
1451 1452 1454 1455 1457 1458 1460 1461 1463 1465 1465 1467 1468 1469 1471 1473 1475 1476 1478 1479 1480 1481 1483 1483 1483 1483 1484 1485 1486 1486 1486 1486 1485 1486 1487 1485 1486 1485 1485 1485 1486 1486 1486
1445 1446 1448 1449 1450 1452 1454 1455 1457 1459 1459 1460 1461 1463 1464 1466 1468 1470 1471 1472 1473 1474 1476 1477 1477 1478 1479 1480 1481 1481 1480 1480 1480 1481 1481 1480 1479 1480 1480 1479 1480 1480 1480
1440 1441 1442 1443 1444 1445 1448 1449 1451 1452 1452 1454 1455 1456 1457 1459 1461 1463 1464 1465 1466 1467 1469 1470 1471 1472 1473 1474 1474 1475 1475 1474 1473 1474 1475 1475 1474 1474 1473 1473 1474 1474 1474
1435 1436 1436 1437 1438 1439 1442 1443 1445 1446 1446 1448 1449 1450 1451 1453 1455 1456 1457 1458 1458 1460 1462 1463 1464 1465 1466 1467 1468 1468 1468 1469 1468 1468 1468 1469 1468 1468 1467 1467 1467 1468 1467